Meling Ranch Airstrip

Jump to: basic info | weather | comments

Related pages: nearby airports | nearby navaids

Basic information (top)

Codes: MSJG
Location: lon 30.975328, lat -115.737877
Status: small_airport

Weather (top)

Current conditions for General Rodolfo Sánchez Taboada International Airport 103nm (190km) NNE (rec'd 2014/09/02 04:40Z):

MMML 020440Z 13004KT 10SM SKC 31/14 A2967

Airport forecast for General Rodolfo Sánchez Taboada International Airport 103nm (190km) NNE (rec'd 2014/08/24 06:21Z):

TAF MMML 240517Z 2406/2506 00000KT P6SM SCT250 
     FM241600 16010KT P6SM SCT250 
     FM250200 00000KT P6SM SCT250

Latest comments (top)

No comments yet for Meling Ranch Airstrip

More... (top)

See also NOTAMs and nearby airports and navaids, or visit the Meling Ranch Airstrip page at the main OurAirports website..